User: anonymous   Login
Location: Unspecified
(0.0000°N, 0.0000°E)
Time: 02:07:06
(UTC+00:00)
Language:

SL-12 R/B(2) - Orbit

View from above orbital plane
View from above orbital plane
View from above satellite
View from above satellite

Ground track
Ground track

The orbit data is extracted from the following two-line orbital elements,

1 26486U 00051D   21017.14148278 -.00000234  00000-0  00000-0 0  9998
2 26486  62.8263  33.9505 7560741 270.3192 119.2275  1.45764891108421
Epoch (UTC): 17 January 2021 03:23:44
Eccentricity: 0.7560741
inclination: 62.8263°
perigee height: 1636 km
apogee height: 51321 km
right ascension of ascending node: 33.9505°
argument of perigee: 270.3192°
revolutions per day: 1.45764891
mean anomaly at epoch: 119.2275°
orbit number at epoch: 10842

The dashed part of the orbit path shows where the satellite is in the earth's shadow,  

DLR